Погода в Нунлигране

Россия / Чукотский автономный округ     64°47′40″N   175°23′03″W
темп.,
°C
ветер,
м/с
пор.,
м/с
влажн.,
%
обл.,
%
осадки,
мм/ч
давл.,
гПа
погр.,
м
11 апреля, вс
вс1100:00−17св5982100 0.0 1017173
03:00−17св5980100 0.0 1015169
06:00−14св61266100 0.0 1014387
09:00−12св81555100 0.3 1013710
12:00−11св81553100 0.6 1011747
15:00−11св91660100 0.1 1010917
18:00−13св91862100 0.1 1009701
21:00−13св91957100 0.0 1007650
12 апреля, пн
пн1200:00−14св102155100 0.0 1006656
03:00−14ссв102256100 0.0 1005651
06:00−14ссв102255100 0.1 1004762
09:00−14ссв102158100 0.0 1005953
12:00−15ссв102263100 0.1 1003890
15:00−15ссв102067100 0.0 1003878
18:00−14ссв91971100 0.2 1002795
21:00−14ссв91872100 0.1 1002760
13 апреля, вт
вт1300:00−14ссв81774100 0.3 1001689
03:00−15ссв81781100 0.2 1001541
06:00−15ссв91678100 0.3 1001481
09:00−14ссв81179100 0.0 1001403
12:00−13ссв7884100 0.2 1002370
15:00−12ссв7877100 0.2 1002366
18:00−12ссв6980100 0.2 1003286
21:00−12ссв6982100 0.0 1003166
14 апреля, ср
ср1400:00−12ссв698399 0.0 1004201
03:00−12ссв5891100 0.2 1004218
06:00−11ссв578698 0.5 1005212
09:00−10ссв447792 0.0 1007267
12:00−8ссв447484 0.0 1008444
15:00−7ссв227441 0.0 1009453
18:00−11ссв338716 0.0 101225
21:00−15ссв339118 0.0 101418
15 апреля, чт
чт1500:00−17с22935 0.0 101612
03:00−18ссз229546 0.0 10179
06:00−17ссз229646 0.0 101914
09:00−13зсз349127 0.0 1020148
12:00−10зсз458412 0.0 1022297
15:00−9зсз348467 0.0 1022413
18:00−13з229510 0.0 102211
21:00−17св1110090 0.0 10239